User: anonymous   Login
Location: Bílinka
(49.3579°N, 14.3767°E)
Time: 20:09:12
(UTC+00:00)
Language:

Cosmos 1190 Rocket - Orbit

View from above orbital plane
View from above orbital plane
View from above satellite
View from above satellite

Ground track
Ground track

The orbit data is extracted from the following two-line orbital elements,

1 11870U 80056B   24113.89627443  .00000975  00000-0  33312-3 0  9996
2 11870  74.0515 292.0018 0016473 339.4746  20.5744 14.37623028270311
Epoch (UTC): 22 April 2024 21:30:38
Eccentricity: 0.0016473
inclination: 74.0515°
perigee height: 754 km
apogee height: 778 km
right ascension of ascending node: 292.0018°
argument of perigee: 339.4746°
revolutions per day: 14.37623028
mean anomaly at epoch: 20.5744°
orbit number at epoch: 27031

The dashed part of the orbit path shows where the satellite is in the earth's shadow,  

DLR